Theta_e
317 317 318 318 319 321 321 321 322 322 323 323 321 321 325 328 321 319 331 339 329 325 327 328 337 345 341 337 336 333 330 327 326 326 326 326 326 327 328 328 328 330 332 334 336 337 338 339 338 339 339 340 340 340 341 341 341 342 342 342 342 343 343 343 343 343 343 344 344 345 345 345 345 345 346 346 347 347 347 348 348 348 348 348 348 347 346
316 316 317 319 320 320 320 320 321 321 322 323 323 323 323 325 324 323 333 339 332 326 327 326 330 336 332 329 329 328 327 327 326 325 326 326 327 327 328 329 328 328 329 330 332 335 338 339 339 339 339 339 340 340 341 341 341 341 341 342 343 343 343 343 343 343 344 344 344 345 345 345 345 346 346 347 347 347 348 348 348 349 348 348 348 348 348
316 316 317 318 318 319 319 320 321 321 322 322 322 323 323 323 325 323 328 334 332 329 330 331 330 330 327 328 330 329 326 326 326 326 326 327 327 327 328 329 329 328 328 329 331 333 336 337 338 339 339 340 340 340 341 341 341 341 341 342 343 343 343 343 344 344 345 345 345 345 345 346 346 346 346 346 347 347 348 348 348 348 349 349 349 348 348
316 316 317 317 318 319 318 319 321 321 321 322 322 323 323 323 324 324 324 326 328 329 331 331 331 329 328 331 334 331 327 325 325 326 326 326 327 326 327 330 329 328 328 329 331 332 332 335 337 338 339 340 340 340 341 340 341 341 341 342 342 342 343 344 344 345 345 345 345 345 346 346 346 346 347 347 347 348 348 348 349 349 349 349 349 349 349
316 316 316 317 318 318 318 319 320 321 322 322 321 323 324 324 324 324 322 323 327 331 331 330 330 330 330 333 334 329 326 325 324 325 326 326 327 326 327 328 328 327 327 329 331 331 332 333 335 337 339 340 340 341 341 341 341 341 342 342 342 342 343 344 344 345 345 345 346 346 346 346 347 347 347 347 348 348 348 348 348 349 349 349 349 349 349
315 315 316 317 318 319 319 319 322 325 327 327 324 322 323 324 323 324 324 325 329 332 331 330 330 330 331 333 330 327 327 326 324 325 325 325 325 326 326 327 327 326 326 329 332 332 333 333 334 337 338 339 341 340 340 341 341 341 342 342 342 343 343 344 344 344 345 345 345 346 346 347 348 348 348 348 348 348 349 349 349 349 349 349 349 349 350
315 315 317 318 320 321 320 321 327 330 332 333 331 326 324 324 323 324 325 325 329 331 331 331 330 331 333 333 329 326 325 324 324 324 325 325 325 325 326 326 326 327 327 330 334 336 336 335 335 337 338 339 340 341 341 342 341 342 342 342 343 343 343 344 345 345 345 346 346 346 347 347 348 348 348 348 349 349 349 349 349 349 349 349 349 349 350
314 315 317 319 321 320 317 322 332 333 333 335 334 329 327 327 326 325 324 325 328 331 332 330 328 331 336 338 337 332 327 326 327 326 326 327 326 326 327 327 328 329 329 332 337 338 337 337 336 336 338 339 340 341 341 342 342 342 342 342 343 344 344 345 345 345 346 346 346 347 347 348 349 349 349 349 349 350 350 350 350 350 349 350 350 349 350
314 314 316 318 319 317 318 327 334 333 334 336 336 335 334 334 333 333 332 329 326 327 329 329 329 332 336 341 343 340 334 331 331 331 331 331 330 329 329 330 331 332 334 337 340 339 338 338 337 337 338 339 340 341 342 342 342 342 342 343 343 343 344 344 345 346 346 346 347 347 348 348 349 348 349 349 349 349 350 349 349 349 349 350 350 350 350
314 314 314 317 317 317 324 332 333 332 333 334 334 335 337 336 336 337 337 336 334 331 329 329 334 337 335 335 341 343 339 338 338 338 337 336 337 336 335 336 336 336 338 341 341 339 338 339 339 339 339 339 340 341 342 342 343 343 343 343 344 344 344 344 345 345 345 346 347 347 348 348 348 348 349 349 349 349 349 349 349 349 349 350 350 350 350
313 313 313 315 316 319 327 333 332 331 333 334 332 332 334 336 335 335 336 337 339 340 337 334 338 338 331 329 338 342 342 344 344 343 342 342 341 341 340 340 340 339 341 343 342 340 340 340 340 341 340 340 341 341 342 342 343 343 343 343 344 344 345 345 345 345 345 346 347 347 348 348 348 349 349 349 349 349 350 350 350 350 350 350 349 349 349
314 315 313 314 316 318 325 330 331 331 334 334 331 328 331 335 334 334 336 338 340 344 344 339 336 334 331 333 338 341 343 347 347 345 346 345 344 344 343 341 340 340 343 344 344 343 341 341 341 341 341 341 341 341 342 342 343 343 344 344 345 345 345 345 345 346 346 347 347 347 347 348 349 349 349 349 350 350 350 351 351 351 351 351 351 351 350
313 314 314 314 315 318 322 328 332 333 332 333 331 329 332 334 333 335 337 339 341 344 345 341 338 337 338 341 341 342 345 348 348 348 349 348 346 346 346 344 343 344 345 346 345 345 344 344 343 343 343 342 342 342 342 343 343 343 344 344 345 345 346 346 346 347 347 347 348 348 348 349 349 349 350 350 351 350 351 351 351 351 352 351 352 351 351
313 314 315 315 316 320 326 330 332 331 329 329 331 332 332 332 333 334 335 337 340 344 344 343 341 340 343 344 345 347 348 348 350 350 351 351 350 350 350 349 347 346 346 346 346 346 347 347 346 345 345 344 344 344 344 344 344 345 345 346 346 347 347 347 347 347 347 347 348 348 348 350 350 351 351 351 351 351 351 352 352 353 352 353 354 353 354
313 314 314 315 318 325 330 330 330 331 330 331 333 333 332 332 332 333 333 335 338 341 343 343 341 342 345 346 346 347 347 348 349 350 351 352 352 352 352 351 348 346 344 344 345 345 346 348 348 348 348 347 347 346 346 346 346 346 347 347 347 348 348 348 348 348 348 348 349 349 349 349 349 350 351 352 352 353 353 353 353 354 354 354 355 356 356
313 313 315 319 323 329 331 330 331 333 333 332 331 331 332 332 330 330 331 333 335 338 341 343 342 343 345 345 344 344 345 346 348 348 349 350 351 351 351 351 349 347 344 344 345 346 347 348 349 350 349 349 349 348 348 349 348 349 349 349 349 350 349 349 350 350 349 350 349 350 350 350 351 352 352 352 353 353 354 354 354 355 356 356 356 357 357
316 316 319 322 325 328 330 332 333 333 331 329 329 330 331 331 329 329 330 332 333 336 339 341 342 342 343 342 343 344 344 344 346 346 347 348 349 350 351 350 350 349 347 347 347 348 349 349 349 350 352 351 352 351 351 351 351 351 351 351 351 351 351 351 351 351 351 351 351 351 351 351 352 352 353 353 354 354 355 356 356 357 358 358 358 357 357
317 318 321 323 325 327 329 331 331 330 329 328 328 328 329 329 328 328 329 331 332 335 338 341 341 341 341 342 342 342 343 344 344 344 345 346 347 347 348 349 350 349 349 349 348 347 348 348 349 350 351 352 353 353 353 354 354 353 353 354 354 354 355 355 354 353 353 353 353 352 352 352 353 353 353 354 354 355 355 357 358 359 359 359 359 358 358
315 318 322 325 327 329 330 329 329 329 328 328 328 328 329 330 329 329 330 331 333 334 336 338 340 340 340 341 341 341 342 342 342 343 344 344 344 345 345 346 347 347 347 348 347 346 346 347 347 347 348 348 349 349 350 351 351 351 351 352 353 355 357 358 358 357 356 355 355 354 353 353 353 353 354 355 355 356 356 357 359 359 358 358 359 358 359
314 315 318 320 320 323 327 329 329 329 329 328 328 329 331 332 330 329 330 331 332 334 334 335 338 339 339 340 340 340 340 341 341 342 343 343 343 344 344 345 345 344 344 344 345 345 345 345 346 346 346 347 346 346 347 347 346 347 347 347 348 349 352 355 357 358 358 357 356 355 355 355 354 354 355 355 356 356 356 356 358 359 358 359 359 358 358
313 313 315 317 318 320 325 327 328 329 329 329 329 330 333 334 331 330 331 332 331 332 334 335 336 337 338 339 339 339 340 340 341 341 342 343 343 343 343 343 342 342 342 343 344 345 344 345 345 345 345 345 344 344 344 343 343 343 343 343 345 345 347 350 353 357 359 360 359 358 357 357 356 356 356 356 356 358 357 357 357 357 357 358 358 358 358
313 314 315 319 323 324 326 327 328 328 328 329 329 330 333 334 331 330 331 332 332 332 333 335 336 336 336 338 339 340 341 341 341 342 342 343 343 343 343 343 343 343 343 343 343 343 343 343 343 343 342 342 342 342 341 341 341 341 340 341 342 342 344 345 347 352 356 358 359 360 360 359 359 358 357 356 356 357 357 357 357 357 358 358 359 359 359
314 314 315 319 322 322 322 324 328 328 328 328 328 329 329 331 330 330 331 332 333 333 332 334 336 336 336 337 338 340 341 340 340 341 342 342 343 343 343 343 343 342 342 341 341 341 342 342 342 342 342 341 341 341 341 341 341 341 341 341 341 342 342 343 343 345 347 349 351 353 355 355 356 356 357 357 357 357 357 357 357 357 357 357 357 358 358
312 313 315 317 319 319 318 320 325 327 328 327 328 329 329 329 328 328 328 329 330 332 333 335 337 338 337 337 338 339 341 341 341 340 340 341 341 341 341 340 340 340 339 340 340 340 340 340 340 341 341 341 341 341 341 340 339 339 338 338 338 339 339 340 341 342 343 343 343 343 342 343 343 344 344 345 346 348 351 353 355 357 358 358 358 358 358
313 314 315 316 316 317 316 317 321 325 328 328 328 327 327 328 327 325 325 325 326 330 332 333 336 339 339 338 339 340 340 341 341 340 340 341 342 342 341 340 339 339 339 339 339 338 338 338 338 339 339 338 338 339 338 337 336 334 333 333 333 334 335 338 340 341 341 339 336 333 332 332 331 331 331 331 331 333 335 339 343 345 347 349 351 354 356
314 314 315 315 316 315 314 317 322 325 327 327 328 325 325 326 324 322 322 322 323 326 328 329 333 337 338 337 338 340 341 341 340 340 340 341 342 342 343 343 342 341 340 339 338 336 335 334 333 332 331 331 332 332 334 336 334 332 330 329 329 330 332 334 335 335 334 332 330 328 327 327 327 327 327 327 328 328 328 329 331 332 333 334 336 340 346
314 314 315 316 317 316 317 320 325 326 325 326 327 326 325 325 323 321 323 324 324 324 325 326 329 332 333 333 335 339 340 340 339 340 340 341 341 342 342 343 343 343 342 341 339 337 334 331 329 328 328 329 328 328 329 331 332 332 331 329 328 328 329 329 329 329 328 327 326 326 326 326 326 326 326 326 326 326 326 327 328 330 330 330 330 332 334
315 315 316 316 317 319 320 323 324 324 324 325 326 326 324 323 322 321 321 322 323 324 323 324 325 326 327 330 334 338 340 340 339 339 339 339 340 341 341 342 342 342 342 342 341 340 338 335 332 331 331 332 332 330 329 328 328 329 330 330 329 329 328 329 329 329 329 328 327 326 325 325 325 325 326 327 326 325 325 326 327 329 329 330 331 332 332
315 317 318 319 320 321 323 324 324 322 322 324 325 324 322 322 323 322 320 319 320 320 320 320 320 321 322 325 328 332 334 334 334 335 335 337 338 339 340 340 340 340 340 341 340 340 340 338 336 335 335 335 335 334 333 331 330 329 329 328 328 328 329 330 331 332 332 332 330 328 327 326 324 325 327 328 327 326 326 326 327 329 332 333 331 329 329
318 320 321 322 323 323 323 324 324 323 322 321 321 322 321 321 323 323 322 320 319 319 318 318 318 318 319 320 321 323 324 324 324 325 328 331 334 335 336 337 337 338 338 339 339 339 340 340 339 339 339 338 338 337 337 336 336 335 334 332 330 329 330 332 334 336 337 337 335 333 330 326 324 325 327 328 328 328 327 327 327 329 334 335 331 327 325
322 322 322 323 324 324 323 324 324 323 322 321 321 321 321 321 321 321 321 321 321 321 320 319 319 319 320 322 323 322 322 322 322 321 322 323 325 327 329 331 331 331 332 333 334 336 337 338 339 339 340 340 341 340 339 339 339 339 338 336 334 332 332 334 337 339 341 341 339 335 331 327 327 328 328 329 330 328 327 327 326 327 331 334 335 333 329
322 322 323 323 323 323 323 323 323 322 321 322 321 321 321 321 320 321 321 321 321 322 322 321 322 323 324 326 326 324 324 324 325 324 324 323 322 322 322 323 324 325 326 327 328 329 330 331 333 334 337 339 339 340 341 341 340 340 340 339 338 336 335 335 336 338 341 342 340 336 332 332 332 331 330 331 331 329 327 327 327 327 328 330 333 336 335
322 323 323 323 323 323 323 323 322 322 322 321 321 321 321 320 321 321 322 323 324 324 325 325 326 327 328 328 328 328 328 328 329 329 328 328 327 326 325 325 326 326 327 328 328 327 327 326 326 327 331 335 337 338 339 340 341 340 340 340 340 338 336 336 336 336 338 341 341 339 337 336 335 333 331 333 334 332 328 326 327 329 331 331 331 333 334
323 323 323 323 323 323 323 323 323 323 324 323 323 323 323 323 324 325 326 328 329 328 328 328 329 329 329 328 329 329 329 329 330 330 330 330 330 330 329 329 329 329 330 330 330 329 329 329 326 324 325 329 332 334 336 337 339 340 340 340 341 340 339 337 336 336 336 338 339 340 340 339 338 336 334 335 337 336 332 328 326 328 330 332 333 331 329
323 323 323 324 323 323 323 324 325 325 326 326 326 326 326 326 327 328 328 329 330 329 329 329 328 328 328 328 328 328 328 328 328 329 329 329 329 329 329 329 329 329 330 330 330 330 331 331 331 329 326 326 328 330 331 332 334 335 336 337 338 339 339 338 338 337 337 337 337 338 340 341 340 339 337 336 336 338 336 334 331 328 328 330 333 334 333
324 324 324 325 325 325 325 325 326 326 327 327 327 327 327 328 328 328 328 329 329 329 328 328 328 327 327 327 327 327 327 327 327 327 327 327 327 327 328 328 328 328 328 328 328 328 329 330 331 332 331 330 331 331 332 332 331 330 330 331 331 332 334 334 335 336 338 338 337 337 338 339 340 340 339 338 337 337 338 338 336 335 333 331 332 334 336
324 324 325 325 325 326 326 326 326 326 327 327 327 326 327 327 328 327 328 328 328 327 326 326 326 326 325 325 325 325 325 325 325 325 325 325 325 326 325 325 325 326 326 326 326 327 327 328 329 330 331 331 332 332 333 334 334 333 332 332 331 331 330 330 330 331 333 336 337 337 337 337 338 338 339 339 338 338 338 338 338 338 338 335 333 332 334
323 324 324 324 325 325 326 326 326 326 325 326 326 326 326 326 326 326 326 325 325 324 324 324 324 324 324 324 324 323 324 324 324 323 323 323 324 324 323 323 322 323 323 323 324 325 326 327 328 328 329 329 329 330 331 331 333 333 333 334 334 333 332 332 331 331 331 333 335 336 337 337 337 337 338 339 338 338 338 338 337 337 338 337 336 335 332
321 321 322 322 323 324 324 324 325 325 325 325 325 324 324 324 324 323 322 322 321 322 322 322 322 323 322 322 322 322 322 322 322 322 322 322 322 321 321 321 321 321 321 321 321 322 323 324 325 326 326 327 327 328 329 329 330 331 331 331 332 332 332 332 332 332 332 332 333 334 335 335 336 336 337 337 337 337 337 338 337 337 337 337 337 337 335
319 320 321 320 320 320 321 322 322 322 322 323 323 323 323 322 322 321 321 321 320 320 320 320 320 320 320 320 320 320 320 320 320 320 320 320 319 319 319 319 319 320 320 320 320 320 321 322 323 324 324 324 325 326 326 327 328 328 329 330 330 330 330 330 331 331 331 331 331 332 332 332 334 334 335 335 335 336 337 337 336 335 335 335 336 337 336
319 320 320 320 319 319 319 319 319 319 320 320 321 322 321 321 321 321 321 321 320 320 319 319 319 319 319 319 318 318 317 318 317 317 318 319 319 318 318 318 318 318 319 319 319 319 320 320 321 322 323 323 323 324 324 324 325 325 326 327 328 328 328 329 329 329 329 329 330 330 330 330 331 332 332 333 333 334 334 335 335 335 334 333 335 336 336
318 319 318 318 318 319 319 318 319 319 319 320 320 321 320 319 320 321 321 320 320 320 319 318 318 318 317 317 316 315 315 315 314 314 316 317 318 317 317 317 316 317 318 318 318 318 318 318 318 319 321 322 323 323 323 323 323 323 324 325 326 326 326 325 325 326 326 327 328 328 328 328 329 330 330 331 331 331 332 332 333 334 334 333 333 334 335
317 318 317 317 317 318 318 318 317 318 318 319 319 318 318 318 318 318 318 318 318 317 317 316 316 315 315 315 314 313 313 313 312 312 313 314 314 315 315 315 314 314 315 316 316 317 317 317 316 317 317 319 320 321 322 322 322 323 323 324 324 323 323 322 322 322 323 324 326 326 326 327 328 328 328 329 329 330 330 330 330 331 332 332 331 333 334
316 315 315 316 316 316 316 316 316 316 317 317 317 316 316 316 316 316 316 316 316 315 315 315 314 314 313 313 312 312 311 311 311 311 312 313 312 312 312 312 312 312 312 313 314 315 316 316 316 316 316 316 317 318 319 320 321 321 322 322 322 321 320 320 319 319 320 322 324 325 325 326 327 328 328 327 327 327 328 329 328 328 329 328 329 332 334
315 314 314 314 315 315 315 315 316 316 316 316 316 316 316 316 316 315 315 315 314 314 313 313 312 311 311 310 310 309 308 308 308 308 309 310 311 311 310 310 311 311 311 311 312 313 314 314 315 316 316 316 317 317 316 317 317 318 318 319 319 318 318 317 317 317 318 320 322 324 325 326 326 326 326 326 327 327 327 328 327 327 327 327 329 331 333
315 314 314 315 315 315 315 315 315 315 315 315 315 315 315 315 314 314 314 313 312 312 311 310 310 309 309 308 308 307 306 306 306 306 305 306 307 307 306 307 308 309 310 310 311 311 311 312 313 314 314 315 316 316 315 315 315 315 315 315 315 315 315 315 315 315 316 317 319 321 323 324 325 325 325 325 325 326 327 327 326 326 326 328 330 331 331
315 315 315 315 315 315 314 314 314 315 314 314 314 313 313 313 313 312 312 311 310 309 309 308 308 307 307 306 306 306 305 305 305 304 304 304 304 304 304 304 304 305 306 307 308 308 308 309 310 310 312 313 313 313 313 313 313 313 313 313 313 313 313 313 314 314 314 315 316 317 319 320 322 323 324 325 325 325 326 326 325 325 326 328 329 329 328
315 315 315 315 314 314 314 314 314 314 313 313 313 312 311 312 312 311 310 310 309 308 307 307 306 306 306 305 305 305 305 305 304 304 304 304 304 304 303 303 303 303 303 304 304 304 304 305 305 306 307 308 308 308 308 308 308 309 309 310 310 310 310 311 311 312 313 313 314 314 315 316 317 319 321 322 324 324 325 325 325 325 325 326 325 324 323
314 314 314 314 314 314 314 313 313 312 312 312 312 311 311 311 310 309 309 308 308 307 306 306 305 305 305 304 304 304 304 304 304 304 303 304 304 304 304 303 303 302 302 302 302 302 302 302 302 303 303 303 303 303 303 303 303 304 304 304 305 306 306 306 307 308 309 310 311 312 313 313 314 315 316 318 320 322 323 324 324 324 324 324 322 320 319
311 312 313 313 313 313 313 313 312 311 311 311 310 310 310 309 309 308 307 307 307 306 306 305 305 304 304 304 304 304 304 303 303 303 303 303 303 303 303 303 303 303 302 302 302 302 302 302 302 302 302 302 302 301 301 301 301 301 302 301 302 302 302 302 302 303 305 306 307 308 310 311 312 313 313 314 315 317 318 320 321 323 324 323 322 321 321
309 310 312 312 312 312 312 311 311 310 310 310 309 309 308 308 307 307 306 306 306 305 305 304 304 303 303 303 303 303 303 303 303 303 303 303 303 303 303 303 303 303 302 302 302 302 302 301 301 301 301 301 301 301 301 301 301 301 301 301 301 301 301 301 301 301 301 301 302 303 304 306 307 309 310 311 312 313 313 314 316 317 319 320 321 321 322
308 309 310 310 310 310 310 309 309 309 308 308 307 307 307 306 306 305 305 304 304 304 304 303 303 303 303 303 303 303 303 302 302 302 302 302 302 302 302 302 302 302 302 301 301 301 301 301 301 301 301 301 301 301 301 301 301 300 300 301 301 301 301 300 300 300 300 300 300 300 301 301 302 303 303 305 306 308 309 310 311 312 313 313 314 315 317
Wind_Speed
4 6 8 6 4 6 7 8 11 11 9 11 14 15 10 10 10 13 6 8 11 11 9 9 6 3 6 8 10 14 15 16 15 14 13 13 14 16 18 19 20 21 25 28 31 34 37 39 42 44 48 49 50 51 53 53 53 53 53 53 51 51 52 53 52 51 49 49 50 49 49 47 46 46 45 44 43 42 41 41 40 40 39 39 39 39 39
5 7 8 6 3 5 8 10 11 13 13 12 11 12 13 13 14 16 9 9 12 13 12 13 12 11 12 13 14 14 13 14 13 11 11 13 14 16 18 19 19 20 22 24 27 30 34 38 40 43 45 48 49 51 52 52 53 53 52 52 50 51 53 52 51 50 50 50 50 50 49 48 47 46 46 45 44 43 42 41 41 41 40 40 41 41 40
5 6 6 6 6 7 10 11 12 12 13 13 12 11 13 13 13 16 14 9 9 8 7 9 10 10 10 11 11 12 13 14 12 12 13 16 19 21 19 17 18 18 19 21 22 26 30 34 38 41 44 46 48 50 51 51 51 51 51 50 50 51 52 51 50 51 50 50 50 50 49 48 47 47 46 46 45 44 43 43 42 42 42 42 41 41 41
5 4 5 9 12 12 12 13 13 14 13 13 11 9 10 11 11 13 14 11 8 4 4 7 6 6 7 8 8 12 17 18 16 16 19 21 26 27 22 19 19 20 21 20 19 21 25 30 35 39 42 44 46 48 49 49 49 50 50 50 50 51 51 50 51 51 50 50 50 49 49 48 48 47 46 46 46 45 45 44 43 44 43 42 42 42 42
5 5 6 9 11 10 10 9 9 12 14 14 13 11 12 13 11 11 11 9 7 4 6 10 9 8 9 10 13 18 22 22 22 22 23 25 28 28 25 22 22 23 23 21 19 19 22 25 31 35 39 43 44 45 45 46 47 49 49 49 49 50 50 50 50 50 50 50 50 49 49 49 48 47 47 47 47 47 46 44 44 45 44 43 43 43 44
5 6 7 9 8 7 5 1 1 6 10 11 14 15 15 14 13 10 9 9 9 8 9 10 11 13 15 17 22 26 25 24 25 26 27 27 27 27 26 24 24 25 26 24 21 19 19 22 27 31 36 39 40 41 43 44 46 47 47 48 48 49 50 50 50 50 50 50 49 49 49 49 49 48 48 48 48 48 47 46 46 46 45 44 45 45 45
5 5 5 7 8 5 5 3 1 4 6 6 10 14 14 15 16 15 14 13 11 9 8 12 17 19 18 18 19 20 21 23 24 26 26 25 24 25 25 25 25 26 26 24 21 18 17 20 25 30 34 35 37 40 43 43 44 45 46 47 48 48 49 50 50 50 50 50 50 50 50 50 49 49 49 49 48 49 49 48 48 47 46 45 45 45 45
4 3 5 8 3 8 15 8 4 1 2 2 5 8 9 8 9 12 14 14 13 11 9 14 20 17 11 8 10 13 16 19 21 23 23 22 22 23 24 25 25 25 24 23 20 17 14 16 21 26 31 33 36 39 41 42 42 43 44 45 46 47 48 49 49 49 49 49 49 49 49 49 49 49 49 49 49 49 49 48 49 48 47 46 46 46 46
5 5 8 8 6 12 14 5 4 2 2 3 4 3 3 3 5 6 8 10 14 14 10 11 14 10 5 4 8 12 15 17 19 20 20 20 20 20 22 23 23 22 21 19 15 12 11 13 15 20 26 30 34 36 39 40 41 42 43 44 45 45 46 47 48 47 46 47 47 48 48 49 50 49 49 49 49 49 48 48 49 49 48 48 47 46 47
6 6 8 8 8 9 5 3 2 3 3 2 1 2 3 1 6 9 8 8 11 11 7 6 6 5 5 6 7 12 18 19 18 17 17 16 15 16 17 18 18 17 16 12 8 6 8 9 10 14 20 25 29 33 36 38 39 41 42 42 42 44 45 46 44 42 42 44 45 46 48 48 49 49 49 49 49 49 48 48 49 49 48 49 48 47 47
7 8 9 8 8 6 3 5 0 4 3 3 4 3 3 1 7 11 9 9 10 10 8 5 5 6 7 7 6 13 18 17 15 14 12 11 11 10 10 10 10 10 9 7 6 6 7 9 9 10 14 20 25 29 32 35 37 39 39 39 40 42 43 41 39 39 40 43 44 45 45 46 48 48 48 48 48 49 49 49 49 49 49 49 48 46 46
8 9 9 7 7 4 1 2 1 5 1 6 5 5 2 3 10 13 12 11 12 12 11 7 7 9 8 6 7 14 18 16 15 15 13 12 11 8 7 5 5 5 6 7 6 6 7 9 10 10 12 16 20 24 27 30 33 34 35 35 36 37 37 37 37 39 41 43 43 42 43 44 45 46 46 47 47 48 49 49 50 51 51 52 51 49 48
10 10 9 8 6 4 3 3 0 2 1 5 5 4 1 4 12 14 13 15 15 14 14 10 8 8 7 5 8 16 19 18 17 17 15 15 14 12 11 9 9 9 8 8 8 7 7 8 10 11 12 12 15 18 21 24 26 27 28 28 29 30 32 34 36 39 41 41 40 40 41 42 44 45 46 46 47 48 48 48 50 51 52 53 53 53 53
8 9 8 8 6 4 6 4 2 2 3 4 3 2 4 8 12 13 14 15 15 15 16 14 12 11 7 4 11 18 20 20 20 18 17 17 17 16 16 15 14 15 13 12 11 10 10 10 10 11 13 12 12 13 15 17 20 21 22 24 26 28 30 32 34 36 38 39 38 38 39 41 42 43 44 46 48 48 48 49 51 52 53 53 54 54 54
7 8 9 8 6 2 8 7 3 4 4 2 2 3 5 5 9 13 14 13 14 15 15 13 12 9 4 5 10 14 16 18 19 18 17 17 17 17 18 17 16 17 17 16 16 15 14 13 12 12 13 13 12 12 13 14 16 17 19 20 23 25 27 30 32 33 35 36 36 37 38 40 41 41 43 46 47 48 50 51 51 52 53 54 54 50 46
6 8 7 4 4 3 4 6 4 4 3 2 1 4 3 3 7 11 12 13 13 14 12 9 7 6 5 6 6 8 10 13 15 15 14 14 15 16 17 17 17 16 16 16 16 16 15 14 13 12 11 11 12 11 11 12 12 13 14 15 17 19 22 25 28 30 31 32 34 36 37 39 40 42 43 45 47 49 50 51 51 53 51 50 51 49 43
5 7 7 7 12 15 13 9 3 7 6 5 5 4 1 4 6 9 10 11 11 11 9 5 5 5 5 6 6 5 6 7 9 11 11 12 14 15 15 16 16 16 16 16 15 16 16 14 13 13 12 10 10 10 9 9 10 10 11 11 12 14 16 19 22 24 26 28 31 33 35 37 40 42 44 46 47 49 50 49 49 47 43 41 44 46 47
7 9 11 12 13 16 16 11 3 8 8 6 5 3 3 7 8 8 8 9 8 7 5 2 4 4 5 8 8 6 5 5 5 7 8 10 12 13 14 14 14 13 14 13 13 13 14 13 13 12 11 10 9 8 7 7 7 7 8 9 10 11 12 14 16 19 22 25 28 30 33 35 38 40 43 45 47 49 49 48 45 41 39 39 40 39 43
7 5 7 8 8 11 13 11 5 5 7 7 7 7 8 11 9 7 7 6 4 4 4 2 4 5 5 9 10 8 6 5 5 5 6 8 10 12 13 14 13 13 12 11 11 10 10 9 9 9 8 8 7 6 5 4 4 4 5 6 7 9 10 11 13 15 18 22 25 28 30 33 37 39 41 43 45 47 48 45 40 38 40 43 44 40 38
5 7 11 13 16 18 18 14 9 6 7 8 11 12 13 13 9 7 8 7 4 3 4 4 6 6 5 7 10 10 7 6 5 6 6 7 8 10 12 12 12 12 12 11 10 9 8 8 7 6 5 5 3 3 1 0 1 2 2 3 4 5 7 9 11 13 16 18 21 24 25 27 31 34 36 38 39 40 45 46 43 41 41 40 43 46 45
7 11 14 13 14 17 18 18 14 9 9 12 15 16 16 13 8 7 9 10 8 6 5 5 8 9 6 6 9 12 11 10 9 8 8 9 9 10 11 12 12 12 12 11 11 10 10 10 8 7 7 6 5 4 4 4 3 3 4 4 5 6 7 8 10 12 13 15 17 20 21 22 25 27 30 33 34 35 40 45 47 48 47 43 41 45 49
8 9 8 5 4 7 12 15 15 11 10 15 17 17 17 13 7 6 8 10 9 8 7 8 11 12 9 6 8 14 16 16 14 12 11 10 11 11 12 13 14 16 16 16 15 14 14 13 11 10 10 9 8 7 6 6 6 5 4 3 3 4 6 8 9 11 12 13 14 16 18 21 23 26 29 32 34 35 37 41 44 47 50 51 48 46 49
12 14 13 9 5 9 15 17 15 12 8 10 14 17 16 12 6 4 7 10 11 9 7 8 13 15 12 9 10 15 18 18 17 16 14 13 12 13 14 16 19 20 20 20 19 19 18 16 15 14 13 12 12 11 9 9 8 7 7 6 5 4 3 3 4 5 7 8 9 11 13 16 19 23 26 29 31 35 37 40 43 44 46 50 53 53 54
19 22 23 18 12 14 22 27 23 12 8 10 12 14 14 10 7 6 7 10 11 10 9 10 14 17 15 12 11 15 18 18 19 20 20 19 18 19 22 24 24 23 23 22 21 22 21 20 19 19 18 17 16 15 14 13 13 12 11 10 10 10 9 7 6 5 4 3 3 4 5 7 9 11 14 18 20 23 27 33 38 43 45 49 53 56 58
24 26 26 22 21 24 29 33 32 18 9 13 14 15 14 9 7 9 10 12 12 11 11 13 16 18 17 14 13 16 19 20 19 19 20 23 25 26 28 28 26 25 25 24 24 23 23 22 22 21 21 21 20 18 17 17 16 16 16 16 16 15 14 12 11 10 11 12 12 12 12 11 11 11 13 14 16 16 16 18 22 28 33 40 47 54 60
29 31 30 27 28 33 32 30 28 18 13 17 17 18 16 10 9 12 14 15 15 13 11 12 16 18 16 14 14 18 21 22 22 21 21 23 25 26 26 26 25 25 25 25 25 24 24 23 23 23 23 23 22 21 20 18 18 18 19 19 19 19 18 17 16 16 16 16 16 16 16 16 16 17 19 20 21 23 23 22 22 25 28 31 34 40 50
31 32 29 22 21 27 28 25 21 17 18 20 20 20 18 13 12 14 16 17 15 14 13 14 17 19 17 15 17 21 23 24 24 23 24 25 25 25 25 25 24 23 23 23 23 22 22 22 22 23 23 23 22 22 20 19 18 19 19 19 20 20 20 19 18 17 16 16 16 15 15 16 17 18 19 20 22 23 25 27 30 34 38 39 39 38 39
31 32 30 24 21 24 25 22 19 20 23 22 21 21 19 17 16 17 19 19 16 14 15 17 18 20 18 17 19 22 25 26 25 24 24 25 25 25 24 24 24 23 23 22 21 19 19 20 20 21 22 21 21 21 19 17 17 17 17 17 17 17 17 16 15 14 14 13 13 13 13 14 15 15 16 17 20 21 24 28 33 39 45 46 43 42 40
32 30 27 26 27 25 20 17 18 21 23 22 22 21 19 17 18 18 19 18 16 15 16 16 17 18 18 16 18 22 24 25 23 23 23 23 23 23 23 22 22 21 21 21 20 18 17 17 17 18 19 19 18 18 17 17 16 15 14 14 13 12 12 12 11 11 11 11 10 11 12 13 13 12 13 15 17 19 24 28 33 40 46 46 42 40 37
20 15 11 15 22 23 20 19 21 23 24 23 23 21 16 16 19 21 18 14 12 13 15 14 14 15 15 14 17 20 22 22 20 19 20 20 20 21 20 19 19 20 20 20 19 17 16 16 16 16 16 15 14 14 15 14 14 14 13 13 12 11 11 11 11 10 10 10 9 9 11 12 12 12 13 14 15 17 22 26 31 37 41 40 39 37 31
11 12 12 19 24 23 21 21 23 25 23 21 21 20 17 16 18 20 20 16 13 12 13 13 12 12 12 13 15 17 18 19 19 19 19 20 20 20 20 19 19 20 20 19 18 17 17 17 17 16 15 13 12 11 11 11 10 11 11 12 13 12 11 12 11 10 10 8 7 8 9 10 11 12 13 13 14 16 20 22 25 31 35 36 38 40 32
18 16 16 21 23 21 20 22 25 25 22 21 21 21 21 21 21 20 19 18 17 15 14 15 15 13 12 13 15 15 15 16 18 19 20 21 22 22 21 20 20 20 19 18 17 16 16 17 17 16 15 14 13 11 9 9 9 9 8 9 10 10 11 12 11 11 11 9 7 7 7 8 10 12 12 11 12 14 16 18 20 25 29 32 37 44 43
23 20 20 22 23 21 19 22 25 25 23 22 22 22 22 22 22 22 21 19 19 19 18 18 18 17 16 16 17 17 18 19 21 22 23 23 24 23 22 21 20 19 19 18 17 17 16 16 15 13 12 13 13 13 10 9 10 9 8 7 7 8 9 10 11 12 12 10 7 7 7 7 8 10 10 10 10 10 12 15 16 18 21 25 29 33 35
25 23 24 26 26 24 23 23 25 25 25 25 24 24 24 24 24 24 23 22 22 22 21 21 20 18 19 19 19 20 21 22 23 24 24 24 24 23 23 22 21 20 19 19 18 19 18 17 15 12 10 10 11 12 12 11 11 11 10 8 7 6 7 8 9 11 12 11 9 7 6 6 7 7 8 9 8 7 9 12 13 13 14 17 22 23 22
24 25 25 25 25 26 26 27 27 26 26 26 25 24 24 24 25 25 24 23 23 23 23 22 21 20 20 21 21 22 24 25 25 26 26 26 25 24 23 23 24 23 23 23 23 22 21 19 17 13 11 9 8 9 9 9 9 10 10 9 8 6 6 7 7 9 10 11 11 9 7 6 5 6 7 8 7 6 6 8 9 9 10 10 11 14 17
25 26 25 24 26 27 26 26 26 25 25 26 25 24 24 23 23 25 25 24 24 24 23 23 23 23 23 23 24 25 26 26 26 27 28 28 27 26 26 27 27 26 26 27 26 24 22 20 18 15 12 11 10 9 8 8 8 8 8 7 7 6 6 6 7 7 7 8 9 9 8 7 6 6 6 7 6 5 4 4 5 6 7 8 7 7 12
26 27 26 24 26 26 24 23 24 24 24 24 24 25 26 25 24 25 27 28 27 26 25 26 26 26 24 22 22 23 23 23 24 27 28 29 29 30 30 30 29 29 29 28 26 24 23 22 19 17 17 16 14 12 10 9 8 8 8 7 7 6 6 5 6 6 6 6 6 6 7 8 7 7 6 7 7 6 4 2 2 3 3 3 4 3 6
28 28 26 25 25 26 23 22 22 22 23 25 26 27 28 28 28 29 31 31 30 28 28 29 29 29 28 26 24 25 25 24 25 27 29 30 31 32 32 31 30 29 29 26 24 24 24 23 22 21 21 20 18 16 14 11 9 8 8 8 8 8 8 8 7 7 8 7 6 6 6 6 6 7 6 7 7 6 5 3 1 1 0 1 2 2 2
32 30 28 27 28 29 27 25 24 25 26 28 29 30 32 34 34 35 35 34 31 30 30 31 31 31 31 30 29 28 28 27 28 29 31 31 33 33 32 30 30 29 27 25 24 24 24 23 23 23 22 21 20 19 17 15 12 11 11 11 11 11 11 11 10 10 10 10 10 10 9 7 6 7 8 8 8 7 6 4 4 3 3 4 5 6 5
39 37 37 37 37 36 36 36 34 33 32 33 34 35 37 39 38 37 36 35 33 31 31 32 33 33 34 34 33 32 31 30 31 32 32 32 33 35 34 32 31 29 26 25 25 25 24 24 24 23 22 21 20 19 18 17 16 15 15 14 14 14 14 14 14 14 14 13 13 13 12 10 9 9 10 9 8 8 8 8 5 4 5 7 7 6 7
41 40 40 40 40 40 41 41 39 36 36 37 38 37 37 36 35 35 34 33 32 31 31 33 34 35 35 35 35 35 33 33 34 35 33 30 30 34 35 34 31 28 26 25 25 25 25 26 25 23 22 20 20 19 18 18 19 19 18 17 17 17 18 18 18 18 18 17 16 15 14 12 11 11 11 9 8 8 9 9 7 6 6 6 6 5 6
37 38 37 37 37 38 39 38 36 34 34 35 35 34 34 33 32 32 32 32 32 32 33 33 33 34 34 33 34 34 34 33 35 36 33 29 28 30 32 31 29 27 25 25 26 27 28 27 26 24 22 19 18 17 18 19 21 21 20 20 19 19 19 20 20 20 19 17 16 15 15 13 11 10 11 11 10 9 9 9 9 7 7 7 5 3 3
33 34 34 35 35 36 36 35 34 33 32 32 31 31 31 31 31 31 31 31 31 31 31 30 30 30 31 31 32 32 32 31 33 34 33 31 30 30 29 27 26 25 24 25 28 29 29 29 28 26 23 21 18 17 17 19 21 21 20 20 20 20 20 21 21 21 21 19 17 16 16 15 13 11 11 11 11 10 9 9 9 7 4 7 7 6 8
31 32 33 34 34 33 32 33 32 32 31 30 30 30 30 30 30 29 29 30 30 29 29 28 29 29 29 29 30 30 30 29 30 31 31 30 30 29 27 25 24 24 23 25 27 28 28 27 26 25 23 22 21 20 21 22 22 22 22 21 21 22 22 22 22 22 21 20 18 17 17 17 16 14 13 13 12 11 9 8 7 5 1 4 6 8 12
28 30 32 33 32 31 31 31 31 30 29 28 28 29 30 29 29 28 28 28 29 29 28 28 29 29 29 29 29 29 29 28 28 29 29 29 28 27 25 23 23 22 22 23 25 26 26 25 23 22 22 22 21 22 24 25 25 25 25 24 24 25 26 25 25 24 22 21 19 17 17 18 17 17 17 16 15 13 10 8 8 8 5 3 4 9 13
27 27 29 30 30 30 29 28 27 27 26 25 26 27 27 26 26 26 26 27 27 27 27 27 27 27 27 26 26 26 27 28 28 28 28 27 26 24 22 22 22 21 21 22 24 24 24 22 22 21 21 21 21 23 26 27 27 28 28 28 28 29 29 28 28 27 26 24 22 20 18 18 18 17 17 17 17 15 13 11 12 11 9 6 6 9 13
24 24 25 26 26 26 25 24 24 24 24 25 26 26 25 24 24 25 25 24 24 25 24 24 24 24 24 23 23 24 25 26 26 25 25 24 24 23 23 22 22 21 21 22 23 23 22 21 21 21 21 21 23 25 26 27 27 28 29 29 30 30 31 30 30 29 28 27 25 23 21 20 18 17 15 15 15 14 12 11 11 12 11 11 11 13 14
19 19 19 20 21 21 22 22 23 24 25 24 24 23 22 21 22 22 22 21 21 21 21 22 22 21 21 21 22 22 22 23 23 22 22 22 22 23 23 23 22 22 21 22 22 22 22 22 22 23 22 23 24 26 27 27 28 28 28 29 29 30 30 31 30 30 29 28 27 26 25 24 22 20 17 15 14 13 10 8 8 10 11 12 13 13 14
20 18 17 16 17 18 20 21 23 24 23 21 20 20 19 18 18 18 18 18 18 18 18 18 18 18 18 18 19 19 19 20 20 19 18 19 20 21 21 21 21 21 22 22 22 22 22 23 24 25 25 26 27 28 28 28 28 28 29 29 29 29 29 30 30 29 29 29 28 27 27 26 25 23 21 19 16 14 11 8 6 6 7 9 11 12 12
22 21 20 18 17 17 18 20 20 20 19 17 17 16 15 14 15 16 15 15 15 15 16 16 15 15 15 15 15 15 16 16 16 15 15 16 17 18 19 19 19 19 19 19 20 20 21 22 23 24 25 26 27 27 27 27 28 28 29 29 29 29 29 29 29 29 29 28 28 28 27 26 25 24 23 21 19 17 14 11 7 4 3 4 5 7 8
21 21 21 19 17 17 17 17 17 16 15 14 14 13 13 13 14 14 13 12 12 13 13 13 14 13 12 12 12 13 12 13 13 13 13 14 15 16 16 15 15 15 16 17 18 19 20 21 22 23 23 24 25 25 25 25 26 26 27 28 28 28 29 29 29 29 29 29 28 28 27 27 26 25 24 23 22 20 18 16 12 8 4 2 1 2 5
17 17 17 16 16 15 15 14 14 13 12 12 12 11 11 12 12 11 10 10 11 11 11 11 12 12 11 11 11 11 11 11 11 11 12 12 12 13 12 12 12 13 14 15 16 17 18 19 20 21 21 22 22 23 23 23 24 25 26 26 26 27 27 28 28 28 28 28 28 28 28 27 26 26 25 25 24 23 22 21 19 16 14 11 9 7 5
Wind_Direction
334 304 297 290 275 259 259 268 269 273 275 254 238 233 212 170 207 243 208 166 221 234 229 240 238 226 250 255 260 266 267 264 260 257 258 264 274 280 279 275 268 258 250 244 240 236 232 230 228 226 225 226 225 225 227 228 230 232 234 234 234 234 234 235 238 239 238 238 238 239 240 241 241 241 241 241 240 239 238 238 239 238 238 239 239 239 239
315 304 300 296 288 273 269 268 265 266 269 265 259 252 240 222 229 244 227 188 218 230 227 231 230 230 243 254 263 265 260 257 258 259 266 275 279 283 286 282 275 271 264 256 249 242 235 231 229 227 226 225 224 224 225 226 229 231 233 233 232 232 234 238 239 238 237 237 238 238 239 240 241 240 240 241 240 239 239 238 238 238 238 239 239 240 240
301 304 307 304 306 301 287 274 262 259 260 259 254 249 249 243 239 245 242 223 222 225 229 238 229 224 236 246 254 257 254 256 261 262 266 272 275 278 282 275 273 280 277 266 255 246 240 236 232 229 227 226 224 224 225 226 227 229 230 231 230 232 237 238 236 235 236 237 237 238 239 240 240 239 240 240 240 240 239 238 238 238 238 238 240 241 241
286 304 320 318 319 309 285 267 258 251 248 250 248 239 240 239 235 242 245 243 243 221 227 254 242 220 235 240 243 252 255 257 259 259 262 266 270 274 273 266 271 284 283 273 262 255 249 242 236 233 230 226 224 224 225 227 227 227 228 230 230 233 236 234 232 234 236 236 237 239 240 240 240 240 239 240 240 240 239 239 239 238 238 238 239 241 242
287 305 317 323 323 302 270 257 254 250 247 250 251 243 240 236 233 237 238 244 259 236 220 241 242 231 235 239 242 245 247 249 250 254 259 262 266 270 270 267 271 279 281 277 271 266 259 249 242 238 232 228 227 227 227 227 226 226 228 231 232 234 234 233 233 235 235 236 237 239 240 240 240 240 239 240 240 240 240 239 239 240 239 239 239 241 242
281 299 317 314 288 258 252 259 258 264 261 257 253 247 241 234 233 245 256 256 254 237 219 228 235 235 236 240 245 247 247 247 248 251 255 258 261 265 268 269 271 274 276 277 275 269 261 254 248 240 234 233 233 232 228 226 225 226 228 230 231 233 234 233 234 234 234 236 238 239 239 239 239 239 239 240 240 240 240 240 240 240 240 240 240 241 243
277 297 306 273 242 245 305 351 77 269 264 258 264 259 248 238 233 237 246 247 247 244 226 224 233 241 245 247 251 251 248 245 245 247 250 253 255 260 265 269 271 272 275 277 277 271 259 250 245 238 234 233 233 231 229 227 226 227 228 229 230 231 232 232 232 233 234 235 236 237 238 238 238 239 239 239 240 240 240 240 240 241 240 241 241 242 243
256 261 239 234 251 327 314 318 56 3 269 325 297 261 242 248 248 242 239 235 238 241 228 225 236 245 255 258 248 242 239 237 237 242 247 250 252 256 262 268 270 272 273 275 277 272 254 241 239 236 233 231 229 228 229 228 228 229 230 230 230 231 232 232 232 232 233 235 236 237 237 237 237 238 239 240 240 240 240 240 241 241 241 241 242 242 243
224 236 246 253 304 315 297 298 55 18 297 350 330 264 252 321 344 311 276 252 246 244 231 226 234 238 245 248 235 230 230 230 232 237 244 248 250 252 258 264 269 270 270 272 274 265 239 226 231 234 232 230 229 228 228 229 229 229 230 231 232 233 233 233 234 235 236 237 237 237 237 237 239 239 240 241 241 240 240 240 241 241 241 240 241 242 243
211 231 253 259 269 271 245 151 78 317 289 268 229 231 256 338 24 1 332 298 279 274 263 233 205 187 222 246 235 222 223 225 227 231 236 240 243 247 254 262 267 267 264 263 259 241 219 215 225 233 232 229 228 228 228 229 229 229 230 233 235 235 234 234 236 239 241 240 240 239 239 240 241 241 241 241 242 241 241 240 240 241 241 241 241 241 242
214 218 236 241 242 242 150 129 198 321 312 191 191 238 243 59 10 348 334 316 303 304 302 268 188 182 224 246 231 215 214 214 213 212 212 213 219 229 239 248 253 249 240 228 214 200 197 200 209 226 234 230 226 227 228 229 230 230 233 236 236 235 235 237 240 242 242 241 240 240 243 244 243 242 242 243 243 243 242 241 241 241 241 241 241 240 241
228 223 236 239 236 248 116 138 278 331 333 169 201 256 240 34 347 331 327 319 308 305 305 282 216 208 229 249 230 209 202 196 190 184 178 178 180 180 182 188 190 185 186 189 186 181 185 192 195 203 217 225 226 228 229 230 231 234 237 239 239 239 240 242 243 241 240 240 241 242 245 246 246 245 246 245 244 244 244 243 243 242 242 242 242 240 239
228 228 240 249 245 236 208 195 246 15 147 186 222 254 256 330 327 330 330 320 311 304 296 275 236 238 262 264 209 190 184 177 169 161 156 154 149 139 132 131 132 137 147 158 158 157 161 172 181 184 189 204 218 224 228 231 235 240 243 244 243 243 242 242 242 241 241 242 244 245 247 248 247 247 247 246 244 245 245 244 243 243 243 244 245 244 242
226 229 238 253 262 217 167 168 145 144 201 227 251 281 295 307 321 334 330 318 316 310 294 271 255 263 276 216 174 171 170 166 158 152 147 141 136 130 123 119 119 121 122 125 128 130 137 148 161 168 171 179 193 208 220 228 235 239 241 241 241 242 242 242 242 242 243 244 246 247 248 248 248 248 247 246 245 246 246 244 243 244 244 244 246 247 246
220 234 233 241 264 197 150 157 171 191 215 270 345 307 301 320 334 335 327 320 323 320 305 278 254 249 230 167 162 161 162 161 156 151 146 139 134 130 126 124 122 120 118 117 116 115 119 128 138 149 160 165 171 186 204 216 225 231 235 238 240 242 243 243 244 245 246 247 249 249 249 250 251 250 249 247 246 245 245 244 244 245 245 244 244 245 244
215 225 216 219 312 321 198 205 206 181 181 143 166 257 291 16 359 337 326 321 329 331 317 284 231 198 169 159 158 152 153 155 154 152 148 141 135 131 128 126 124 124 123 118 114 113 114 117 124 133 145 156 162 174 191 204 215 224 231 237 242 245 247 247 248 249 250 251 252 251 251 252 251 249 248 248 247 247 246 245 244 244 243 242 242 241 240
250 254 260 290 313 311 294 272 201 149 158 161 172 209 264 47 18 349 327 319 331 340 321 276 200 176 163 149 142 142 144 143 144 146 145 140 135 129 124 123 123 123 122 118 116 116 114 114 119 124 132 146 157 165 178 194 207 218 225 231 237 243 249 252 253 254 254 254 254 254 254 253 251 249 247 246 246 247 247 244 242 241 241 241 241 239 240
306 289 269 266 279 289 290 285 214 150 158 160 158 160 90 63 35 360 332 321 335 347 327 265 170 156 145 135 128 127 133 132 128 131 132 133 132 127 122 121 121 121 119 118 118 118 115 115 118 119 125 135 144 150 161 180 197 213 222 228 232 236 241 248 253 254 256 256 256 256 256 254 252 251 249 247 247 248 246 244 242 241 240 241 242 239 241
308 293 264 259 269 276 273 266 242 169 159 150 137 119 85 66 46 13 350 340 339 351 355 47 129 140 140 133 124 119 123 122 111 110 112 116 120 122 121 119 119 121 119 115 114 113 109 108 108 110 116 122 125 132 141 158 181 202 219 229 236 239 240 243 246 248 251 253 254 256 256 255 253 252 251 249 248 247 246 244 242 242 242 243 243 242 243
262 270 280 290 297 291 274 259 249 209 172 142 116 104 89 71 50 27 24 23 29 50 38 53 94 112 125 126 120 117 116 111 104 103 103 102 104 110 115 118 123 126 124 120 119 116 108 101 94 89 89 85 79 83 77 8 262 270 281 273 267 261 250 247 245 245 247 248 249 251 253 253 254 253 252 251 249 249 250 248 245 245 245 243 244 245 246
279 274 276 281 289 284 267 253 249 226 172 130 106 97 88 73 50 43 56 52 48 64 80 83 90 95 96 103 110 111 107 102 99 96 92 92 93 95 102 111 117 119 118 115 113 108 101 95 89 80 75 65 50 36 10 347 332 316 300 280 269 262 252 246 242 239 239 240 242 245 247 248 250 251 251 252 253 254 256 255 254 254 251 248 248 249 249
267 257 261 257 259 274 262 243 228 201 147 110 91 81 77 71 47 38 72 79 72 74 88 102 103 98 86 75 91 100 101 99 98 95 91 90 92 92 95 101 103 104 104 103 100 96 90 86 81 76 70 63 55 43 27 13 3 351 343 328 290 263 252 249 244 239 238 238 240 245 248 250 251 251 251 250 250 253 256 256 257 257 255 253 253 252 252
257 258 268 273 279 298 290 267 238 203 156 107 85 77 77 81 72 49 73 88 90 87 84 95 102 99 90 82 87 95 100 99 96 95 93 89 87 89 90 92 93 93 94 94 92 90 88 87 88 85 81 77 72 64 56 50 41 34 31 29 25 20 357 309 279 267 260 256 256 259 262 264 265 264 262 258 256 256 258 258 258 258 257 257 256 253 253
263 266 270 273 274 277 278 276 265 235 160 120 101 90 86 91 99 96 87 84 89 98 100 99 101 99 96 96 98 101 104 102 95 92 90 86 82 82 83 84 85 85 85 85 84 84 86 89 90 89 88 86 82 78 77 76 73 71 67 61 55 49 38 31 26 21 24 32 21 355 324 306 300 294 288 283 278 272 266 263 263 262 262 261 260 257 255
258 263 266 269 269 268 273 279 276 257 166 122 113 105 100 105 115 112 100 87 87 103 111 107 108 109 107 108 112 110 108 103 97 92 89 85 82 81 80 81 81 81 82 82 82 83 85 87 88 87 87 84 81 80 80 81 81 79 76 71 68 63 55 52 52 57 66 68 61 52 44 31 20 15 6 352 341 328 307 286 275 273 272 270 265 260 257
259 262 264 267 270 272 276 278 267 238 166 130 119 110 105 116 128 118 107 94 87 92 100 102 106 112 114 116 117 110 104 100 97 95 92 89 86 83 81 80 80 82 83 84 85 86 87 88 88 88 85 82 80 78 78 78 79 78 76 75 73 69 65 64 65 68 71 70 64 56 48 41 34 28 20 11 1 353 344 332 321 314 309 302 290 275 263
261 258 258 259 266 271 269 260 238 196 149 130 122 112 109 118 123 113 106 100 89 83 85 90 98 106 110 112 110 106 101 98 95 93 92 91 89 86 85 83 83 84 85 86 87 88 88 87 87 86 84 82 79 77 76 77 77 76 76 78 78 76 74 72 70 70 68 65 61 56 47 43 39 32 24 17 10 4 358 353 345 337 330 322 312 299 282
260 256 250 243 247 257 254 237 206 164 139 133 130 125 124 124 115 100 94 95 92 84 80 82 88 96 102 104 105 103 99 95 92 90 90 91 92 92 91 89 87 86 87 88 88 87 86 83 81 81 80 79 77 76 74 73 74 75 77 80 80 79 78 74 70 67 62 55 54 53 46 40 39 36 30 22 15 11 10 7 1 353 344 333 319 307 298
264 261 251 236 234 235 224 196 167 143 132 131 134 135 135 127 114 101 91 88 88 85 80 73 73 82 89 91 92 92 91 89 88 89 89 90 92 92 90 89 89 87 86 84 82 80 80 78 77 76 75 74 74 75 72 70 68 66 67 69 69 70 69 65 60 54 48 44 45 43 35 30 32 37 34 25 17 15 18 17 11 2 355 349 340 328 313
256 247 217 185 188 192 181 160 143 132 129 130 131 133 133 121 111 109 107 101 89 81 77 69 63 69 75 77 77 81 85 86 86 87 86 86 87 86 85 87 87 82 75 71 68 66 67 67 67 67 66 65 68 69 69 68 65 60 55 54 51 50 53 54 53 49 43 40 37 26 19 23 28 27 23 22 18 14 16 20 19 15 11 9 8 359 339
182 186 158 141 150 161 160 148 138 133 134 135 133 133 135 126 113 110 113 113 106 95 89 87 83 80 79 80 81 82 84 85 84 82 81 79 77 76 75 74 73 70 66 63 61 60 60 59 57 54 51 50 52 56 59 60 56 52 52 52 48 44 42 43 45 47 46 43 33 19 18 24 23 16 15 19 18 12 11 15 21 24 24 27 32 32 22
142 149 143 135 140 150 153 144 139 138 140 140 137 135 136 133 125 119 117 116 115 113 109 106 107 107 102 98 94 90 86 83 80 77 74 73 71 70 68 68 68 67 66 63 61 59 58 56 53 49 44 42 43 44 45 45 38 35 42 47 47 44 40 36 35 37 39 39 33 22 20 17 11 11 16 19 15 10 11 16 24 33 37 38 40 43 47
137 133 137 140 142 146 145 139 138 139 140 141 140 135 131 128 125 124 123 123 122 120 117 114 116 116 113 106 100 95 91 88 84 80 76 74 74 73 72 72 72 69 67 63 61 58 55 52 49 46 42 41 42 40 39 38 34 33 35 36 37 38 35 31 30 28 28 31 31 22 14 8 7 11 17 21 19 16 18 23 29 38 49 58 58 54 52
143 140 146 149 147 145 143 139 137 137 137 138 138 135 131 130 128 126 126 127 125 122 119 117 116 114 108 102 96 91 88 85 81 80 80 79 80 80 78 77 74 70 66 62 58 54 50 46 42 40 36 35 38 39 38 37 36 36 35 33 32 29 22 22 24 22 20 22 22 14 5 1 360 360 6 15 19 14 18 34 41 36 42 65 80 81 73
140 137 140 144 144 143 142 140 137 136 136 136 136 134 132 130 129 127 126 124 121 118 117 116 115 110 103 97 91 87 86 84 82 83 83 83 84 83 82 79 75 70 65 61 57 52 48 43 40 39 38 37 38 38 36 35 35 36 37 38 37 31 20 18 19 14 12 13 12 8 4 358 349 347 356 6 14 10 11 32 46 37 30 49 78 98 104
135 131 131 136 136 136 137 138 137 137 137 135 134 132 131 130 128 126 123 119 116 115 115 114 111 105 98 93 91 89 87 86 84 83 81 80 81 81 78 74 70 66 63 60 56 52 49 46 44 45 47 47 46 43 37 34 33 31 31 32 32 27 24 24 18 7 3 5 3 0 359 354 342 334 333 338 347 357 3 19 37 35 33 43 61 100 120
114 116 119 124 127 127 129 132 135 136 134 133 132 131 129 127 123 119 115 113 112 112 111 109 106 101 94 90 88 86 84 82 80 78 76 75 74 73 69 64 61 59 57 54 51 50 50 49 48 49 49 47 44 41 38 37 36 34 31 29 27 22 17 17 12 359 350 346 345 348 352 351 345 336 321 314 317 322 323 340 30 37 41 54 63 101 136
89 98 106 112 116 117 119 123 129 129 125 123 124 122 119 116 112 109 107 107 108 108 106 104 103 101 97 92 88 84 82 80 78 76 74 72 69 66 62 58 55 54 53 51 50 50 50 50 50 50 50 47 44 41 38 33 32 34 33 28 26 23 19 16 13 5 356 349 341 339 343 339 329 323 313 299 295 298 302 303 302 315 325 163 173 179 173
74 81 87 91 95 100 102 104 109 111 111 112 112 109 107 106 105 103 102 102 102 103 102 101 100 98 95 91 87 84 82 82 81 79 77 73 70 67 64 59 55 54 53 52 51 51 50 50 50 49 47 46 44 42 40 37 36 38 38 35 32 29 26 22 20 16 12 8 1 356 350 334 312 310 313 305 291 283 282 275 258 252 257 241 216 201 201
67 69 71 72 75 79 83 85 86 90 95 98 97 96 97 100 101 101 100 99 99 99 98 96 94 91 88 85 82 80 78 79 79 78 75 72 69 66 62 57 54 52 52 51 51 50 50 50 50 48 45 44 43 40 38 39 41 43 45 47 45 42 38 35 33 31 29 26 21 16 9 357 340 332 330 324 309 295 288 281 268 255 260 257 242 224 217
69 71 74 75 74 75 77 78 79 81 85 88 90 92 94 96 97 98 99 98 96 95 92 90 88 87 85 83 81 78 75 74 73 72 70 66 63 61 58 55 52 51 52 52 51 50 48 46 45 44 42 43 43 41 38 39 42 44 46 47 48 47 43 40 38 37 35 33 32 30 25 16 6 360 357 353 342 324 309 297 284 269 261 256 249 238 222
74 77 81 84 84 83 84 83 82 82 83 84 87 91 91 90 91 93 94 92 90 88 86 85 85 85 84 82 80 77 74 71 69 67 65 62 60 59 57 55 51 50 51 52 50 48 46 43 41 39 38 39 41 41 40 42 44 45 45 46 47 47 45 41 38 36 35 33 33 34 33 29 21 15 13 13 9 358 343 329 316 292 259 237 233 224 174
79 82 84 84 86 88 89 87 86 86 86 86 89 90 89 89 90 90 89 88 87 85 84 83 82 81 80 78 77 75 73 71 69 67 65 63 62 61 59 57 53 50 49 51 50 48 46 45 44 41 39 39 40 41 43 46 47 47 48 49 49 48 46 43 39 37 35 34 34 35 35 35 34 33 30 29 26 18 8 0 354 337 269 222 208 188 160
80 83 85 86 88 90 90 90 90 90 90 90 91 91 91 91 90 89 87 87 86 83 82 81 78 76 74 72 71 70 67 65 66 67 65 63 62 59 57 55 53 50 49 51 51 50 49 48 46 43 41 41 42 43 46 49 49 49 49 49 48 46 44 42 40 38 37 37 36 34 33 34 37 39 41 40 34 25 19 22 29 31 48 201 195 181 168
75 79 83 87 89 89 89 89 90 91 91 90 89 89 89 90 89 88 87 86 84 81 80 78 76 75 73 70 68 67 65 61 60 62 63 63 62 57 52 51 51 49 50 52 53 52 50 48 46 43 41 41 41 44 47 49 50 51 50 49 48 46 45 43 42 41 40 39 37 35 35 36 39 41 44 46 44 39 40 52 66 72 80 114 175 178 168
74 77 80 83 84 86 87 88 88 88 87 84 84 85 85 85 85 84 84 84 84 84 83 80 78 77 75 71 69 67 66 63 61 61 62 65 65 60 54 50 49 48 49 52 53 52 49 45 43 42 43 43 44 47 49 50 50 50 50 50 49 48 47 46 45 45 44 43 42 40 38 39 40 41 41 41 43 48 61 78 86 85 85 98 132 146 143
71 74 78 82 86 90 92 91 87 84 81 81 84 87 85 82 81 82 81 81 82 83 81 79 77 75 72 70 68 67 66 66 66 64 62 62 62 59 56 52 49 47 48 51 52 50 46 42 39 39 41 44 47 49 50 50 49 49 49 49 49 48 48 47 45 44 44 44 43 42 41 40 41 43 43 41 41 47 61 80 90 94 98 104 112 119 123
68 73 80 86 89 91 91 89 87 86 85 86 89 90 87 82 80 80 79 77 76 74 73 72 71 69 68 68 68 66 64 65 67 67 64 59 57 56 55 53 51 49 50 52 52 49 45 41 40 39 40 42 45 46 46 47 48 48 48 48 47 47 47 46 45 45 44 42 42 42 41 39 40 41 43 44 46 49 53 64 82 97 107 113 116 119 122
69 72 76 80 82 84 85 86 88 91 93 92 92 92 88 83 80 79 79 77 76 75 74 72 71 71 70 70 69 68 67 67 69 71 67 60 55 54 53 50 49 49 50 52 52 50 46 43 42 41 42 44 45 45 46 46 46 46 46 47 46 46 45 45 45 45 45 44 43 42 42 41 39 39 39 40 43 47 51 58 71 88 105 119 127 132 136
70 71 74 77 79 80 82 84 88 92 94 93 92 91 86 80 79 81 82 81 81 82 82 81 80 79 78 76 74 73 72 70 70 69 64 58 54 51 48 46 45 45 45 46 46 45 43 42 41 41 42 44 45 45 45 45 45 45 45 45 45 44 44 43 42 43 43 44 43 42 42 41 40 40 38 36 36 38 41 47 54 66 104 140 153 163 171
70 72 76 80 83 82 82 82 84 86 86 85 84 82 79 79 83 86 85 83 83 83 84 85 86 85 83 82 79 74 71 68 66 62 57 54 53 49 44 42 41 40 39 40 41 40 39 39 39 38 38 40 42 42 42 43 43 43 43 42 42 42 41 40 40 40 41 42 43 43 42 41 41 41 40 39 37 35 34 34 35 34 31 22 322 245 235
73 74 78 81 83 82 83 83 83 82 81 79 77 75 75 78 82 83 79 76 76 76 76 78 80 78 76 73 70 66 61 59 57 54 51 50 48 44 41 39 38 37 37 37 36 36 36 36 35 34 34 35 36 36 36 37 38 39 39 39 39 38 37 36 37 37 37 38 39 40 40 40 40 40 40 39 38 37 35 34 33 32 30 24 16 5 340